Overview Statistics Trail Chart Weather Telemetry Raw packets
 

This is the latest recevied weather packets stored in our database for station/object G4KVI. If no packets are shown the sender has not sent any weather packets the latest 10 day(s).

<< 8 9 10 11 12 13 14 >>
Time Temp. Humidity Pressure Rain* Wind** Luminosity Snow
1788536104 17.22° C 71% 1019.6 hPa 0 mm - 138 W/m² -
1788535804 17.22° C 70% 1019.4 hPa 0 mm - 151 W/m² -
1788535504 17.22° C 70% 1019.3 hPa 0 mm - 158 W/m² -
1788535221 17.78° C 70% 1019.4 hPa 0 mm - 136 W/m² -
1788534904 17.78° C 70% 1019.2 hPa 0 mm - 135 W/m² -
1788534604 17.78° C 70% 1019.3 hPa 0 mm - 144 W/m² -
1788534304 17.78° C 69% 1019.3 hPa 0 mm - 131 W/m² -
1788534004 17.78° C 69% 1019.3 hPa 0 mm - 159 W/m² -
1788533704 17.78° C 68% 1019.5 hPa 0 mm - 158 W/m² -
1788533404 17.78° C 68% 1019.1 hPa 0 mm - 167 W/m² -
1788533104 17.78° C 67% 1019.2 hPa 0 mm - 187 W/m² -
1788532804 17.78° C 66% 1018.9 hPa 0 mm - 224 W/m² -
1788532504 18.33° C 65% 1018.9 hPa 0 mm - 241 W/m² -
1788532204 18.33° C 65% 1019 hPa 0 mm - 268 W/m² -
1788531904 18.33° C 66% 1019 hPa 0 mm - 267 W/m² -
1788531604 18.33° C 65% 1019.1 hPa 0 mm - 319 W/m² -
1788531304 18.89° C 67% 1019 hPa 0 mm - 335 W/m² -
1788531004 18.33° C 68% 1018.8 hPa 0 mm - 318 W/m² -
1788530704 17.78° C 69% 1019 hPa 0 mm - 370 W/m² -
1788530404 17.78° C 68% 1018.8 hPa 0 mm - 289 W/m² -
1788530104 17.78° C 69% 1018.8 hPa 0 mm - 257 W/m² -
1788529804 17.78° C 67% 1018.7 hPa 0 mm - 223 W/m² -
1788529504 17.78° C 67% 1018.6 hPa 0 mm - 238 W/m² -
1788529204 17.78° C 67% 1018.4 hPa 0 mm - 252 W/m² -
1788528904 17.78° C 67% 1018.6 hPa 0 mm - 289 W/m² -

* Rain latest hour (hover to see other rain measurements)
** Current wind speed in m/s (hover to see current wind gust speed)